F8KGK-5 Weather Reports


time (UTC)temp
F
wind
direction
speed
knots
gust
knots
rain 1hr
in
rain 24hr
in
rain mn
in
humidity
%
barometer
mb
20260902231701 64 249 0.0 0.9 0.00 0.00 0.00 69 1014.9
20260902224701 65 248 0.0 0.0 0.00 0.00 0.00 67 1014.9
20260902221701 67 230 1.7 1.7 0.00 0.00 0.00 63 1014.7
20260902214702 69 220 0.9 2.6 0.00 0.00 0.00 60 1014.7
20260902211702 69 218 1.7 2.6 0.00 0.00 0.00 59 1014.6
20260902204701 69 284 0.9 1.7 0.00 0.00 0.00 59 1014.8
20260902201700 69 255 0.9 1.7 0.00 0.00 0.00 58 1015.0
20260902201634 69 255 0.9 1.7 0.00 0.00 0.00 58 1015.0
20260902191259 71 271 0.9 3.5 0.00 0.00 0.00 54 1014.4
20260902184258 72 271 0.0 1.7 0.00 0.00 0.00 52 1014.0
20260902181259 74 262 0.9 1.7 0.00 0.00 0.00 49 1014.0
20260902174259 75 263 3.5 5.2 0.00 0.00 0.00 47 1014.1
20260902171300 76 227 5.2 8.7 0.00 0.00 0.00 46 1014.1
20260902164259 77 277 4.3 5.2 0.00 0.00 0.00 44 1014.2
20260902161259 77 238 6.1 7.0 0.00 0.00 0.00 44 1014.2
20260902154300 78 265 1.7 4.3 0.00 0.00 0.00 43 1014.5
20260902151259 79 273 5.2 11.3 0.00 0.00 0.00 42 1014.7
20260902144259 88 275 5.2 4.3 0.00 0.00 0.00 35 1014.7
20260902141301 80 258 2.6 3.5 0.00 0.00 0.00 42 1015.1
20260902134259 79 264 2.6 5.2 0.00 0.00 0.00 42 1015.4
20260902131259 80 209 6.1 7.0 0.00 0.00 0.00 41 1015.2
20260902124259 79 270 2.6 3.5 0.00 0.00 0.00 41 1015.4
20260902121259 78 319 0.0 0.9 0.00 0.00 0.00 42 1015.6
20260902114258 82 264 4.3 6.1 0.00 0.00 0.00 42 1015.8
20260902111259 78 207 4.3 4.3 0.00 0.00 0.00 44 1016.0
20260902104300 78 275 2.6 5.2 0.00 0.00 0.00 48 1016.3
20260902101300 75 274 3.5 6.1 0.00 0.00 0.00 50 1016.2
20260902094300 75 182 2.6 7.0 0.00 0.00 0.00 54 1016.2
20260902091259 73 227 2.6 3.5 0.00 0.00 0.00 56 1016.1
20260902084300 75 278 0.0 1.7 0.00 0.00 0.00 55 1016.3
20260902081259 77 270 0.0 1.7 0.00 0.00 0.00 58 1015.7
20260902074259 68 270 0.0 0.0 0.00 0.00 0.00 73 1015.6
20260902071258 65 270 0.0 0.0 0.00 0.00 0.00 78 1015.5
20260902064257 62 227 0.0 0.9 0.00 0.00 0.00 88 1015.4
20260902061259 56 225 0.0 0.0 0.00 0.00 0.00 90 1015.3
20260902060021 55 225 0.0 0.9 0.00 0.00 0.00 90 1015.1
20260902053020 53 270 0.0 0.0 0.00 0.00 0.00 89 1015.2
20260902050022 54 225 0.0 0.0 0.00 0.00 0.00 89 1014.9
20260902043022 54 270 0.0 0.9 0.00 0.00 0.00 88 1015.2
20260902040022 55 270 0.0 0.9 0.00 0.00 0.00 88 1015.3
20260902033020 54 270 0.0 0.0 0.00 0.00 0.00 88 1015.1
20260902030025 54 270 0.0 0.0 0.00 0.00 0.00 87 1015.2
20260902023022 55 270 0.0 0.0 0.00 0.00 0.00 86 1015.4
20260902020021 56 225 0.0 0.0 0.00 0.00 0.00 85 1015.2
20260902013022 55 225 0.0 1.7 0.00 0.00 0.00 84 1015.3
20260902010021 56 225 0.0 0.0 0.00 0.00 0.00 83 1015.4
20260902003020 57 225 0.0 0.0 0.00 0.00 0.00 82 1015.4
20260902000020 58 202 0.0 0.0 0.00 0.00 0.00 81 1015.3